timestamp,surface_pressure_avg,surface_temp_avg,battery_voltage,lat,long
2019-05-30 00:00:00+00:00,251.2581,3.2,13.21,47.84626,-54.09684
2019-05-30 00:10:00+00:00,247.2381,3.2,13.05,47.84626,-54.09684
2019-05-30 00:20:00+00:00,238.8397,3.2,13.05,47.84626,-54.09684
2019-05-30 00:30:00+00:00,234.5164,3.19,13.05,47.84626,-54.09684
2019-05-30 00:40:00+00:00,233.3681,3.17,13.05,47.84626,-54.09684
2019-05-30 00:50:00+00:00,228.9431,3.15,13.05,47.84626,-54.09684
2019-05-30 01:00:00+00:00,225.2931,3.15,12.97,47.84626,-54.09684
2019-05-30 01:10:00+00:00,228.8064,3.14,12.89,47.84626,-54.09684
2019-05-30 01:20:00+00:00,227.8214,3.18,12.97,47.84626,-54.09684
2019-05-30 01:30:00+00:00,221.8098,3.2,12.97,47.84626,-54.09684
2019-05-30 01:40:00+00:00,220.3331,3.2,12.97,47.84626,-54.09684
2019-05-30 01:50:00+00:00,220.8281,3.2,12.97,47.84626,-54.09684
2019-05-30 02:00:00+00:00,217.2014,3.4,12.89,47.84626,-54.09684
2019-05-30 02:10:00+00:00,214.3897,3.6,12.81,47.84626,-54.09684
2019-05-30 02:20:00+00:00,214.8532,3.7,12.89,47.84626,-54.09684
2019-05-30 02:30:00+00:00,216.1048,3.8,12.89,47.84626,-54.09684
2019-05-30 02:40:00+00:00,215.4481,3.87,12.97,47.84626,-54.09684
2019-05-30 02:50:00+00:00,214.8214,3.9,12.97,47.84626,-54.09684
2019-05-30 03:00:00+00:00,216.4498,3.9,12.89,47.84626,-54.09684
2019-05-30 03:10:00+00:00,222.2747,3.9,12.81,47.84626,-54.09684
2019-05-30 03:20:00+00:00,224.2331,3.9,12.89,47.84626,-54.09684
2019-05-30 03:30:00+00:00,221.9748,3.9,12.89,47.84626,-54.09684
2019-05-30 03:40:00+00:00,225.0265,3.9,12.89,47.84626,-54.09684
2019-05-30 03:50:00+00:00,229.9631,3.9,12.89,47.84626,-54.09684
2019-05-30 04:00:00+00:00,231.1897,3.9,12.81,47.84626,-54.09684
2019-05-30 04:10:00+00:00,231.2798,3.9,12.73,47.84626,-54.09684
2019-05-30 04:20:00+00:00,234.2531,3.9,12.81,47.84626,-54.09684
2019-05-30 04:30:00+00:00,238.5631,3.9,12.89,47.84626,-54.09684
2019-05-30 04:40:00+00:00,238.6814,3.9,12.89,47.84626,-54.09684
2019-05-30 04:50:00+00:00,240.1714,3.9,12.89,47.84626,-54.09684
2019-05-30 05:00:00+00:00,246.8914,3.9,12.81,47.84626,-54.09684
2019-05-30 05:10:00+00:00,251.8181,3.89,12.73,47.84626,-54.09684
2019-05-30 05:20:00+00:00,251.5198,3.87,12.81,47.84626,-54.09684
2019-05-30 05:30:00+00:00,254.9881,3.84,12.81,47.84626,-54.09684
2019-05-30 05:40:00+00:00,261.9314,3.8,12.89,47.84626,-54.09684
2019-05-30 05:50:00+00:00,266.1481,3.8,12.89,47.84626,-54.09684
2019-05-30 06:00:00+00:00,269.2631,3.8,12.81,47.84626,-54.09684
2019-05-30 06:10:00+00:00,278.7864,3.83,12.73,47.84626,-54.09684
2019-05-30 06:20:00+00:00,286.9197,3.8,12.81,47.84626,-54.09684
2019-05-30 06:30:00+00:00,289.7081,3.8,12.81,47.84626,-54.09684
2019-05-30 06:40:00+00:00,291.3464,3.83,12.81,47.84626,-54.09684
2019-05-30 06:50:00+00:00,297.093,3.84,12.81,47.84626,-54.09684
2019-05-30 07:00:00+00:00,301.8331,3.85,12.73,47.84626,-54.09684
2019-05-30 07:10:00+00:00,302.3013,3.87,12.65,47.84626,-54.09684
2019-05-30 07:20:00+00:00,306.903,3.87,12.73,47.84626,-54.09684
2019-05-30 07:30:00+00:00,315.0781,3.82,12.73,47.84626,-54.09684
2019-05-30 07:40:00+00:00,319.238,3.82,12.81,47.84626,-54.09684
2019-05-30 07:50:00+00:00,316.6063,3.82,12.81,47.84626,-54.09684
2019-05-30 08:00:00+00:00,319.4613,3.84,12.73,47.84626,-54.09684
2019-05-30 08:10:00+00:00,325.0181,3.84,12.65,47.84626,-54.09684
2019-05-30 08:20:00+00:00,323.213,3.85,12.73,47.84626,-54.09684
2019-05-30 08:30:00+00:00,317.4763,3.85,12.81,47.84626,-54.09684
2019-05-30 08:40:00+00:00,318.6146,3.86,12.81,47.84626,-54.09684
2019-05-30 08:50:00+00:00,322.5129,3.87,12.89,47.84626,-54.09684
2019-05-30 09:00:00+00:00,320.2947,3.86,12.89,47.84626,-54.09684
2019-05-30 09:10:00+00:00,315.4296,3.85,12.89,47.84626,-54.09684
2019-05-30 09:20:00+00:00,314.678,3.85,13.05,47.84626,-54.09684
2019-05-30 09:30:00+00:00,316.8163,3.86,13.21,47.84626,-54.09684
2019-05-30 09:40:00+00:00,314.803,3.84,13.44,47.84626,-54.09684
2019-05-30 09:50:00+00:00,311.2897,3.83,13.68,47.84626,-54.09684
2019-05-30 10:00:00+00:00,314.1629,3.82,13.76,47.84626,-54.09684
2019-05-30 10:10:00+00:00,311.283,3.81,13.84,47.84626,-54.09684
2019-05-30 10:20:00+00:00,300.978,3.87,14.16,47.84626,-54.09684
2019-05-30 10:30:00+00:00,293.043,3.9,14.32,47.84626,-54.09684
2019-05-30 10:40:00+00:00,290.853,3.9,14.56,47.84626,-54.09684
2019-05-30 10:50:00+00:00,287.998,3.9,14.64,47.84626,-54.09684
2019-05-30 11:00:00+00:00,286.0514,3.9,14.64,47.84626,-54.09684
2019-05-30 11:10:00+00:00,279.7414,3.9,14.64,47.84626,-54.09684
2019-05-30 11:20:00+00:00,273.678,3.9,14.8,47.84626,-54.09684
2019-05-30 11:30:00+00:00,270.8932,3.9,14.8,47.84626,-54.09684
2019-05-30 11:40:00+00:00,268.3398,3.9,14.8,47.84626,-54.09684
2019-05-30 11:50:00+00:00,256.3764,3.9,14.8,47.84626,-54.09684
2019-05-30 12:00:00+00:00,248.7314,3.9,14.72,47.84626,-54.09684
2019-05-30 12:10:00+00:00,248.7147,3.9,14.64,47.84626,-54.09684
2019-05-30 12:20:00+00:00,242.9447,3.9,14.8,47.84626,-54.09684
2019-05-30 12:30:00+00:00,231.3931,3.92,14.72,47.84626,-54.09684
2019-05-30 12:40:00+00:00,230.6764,3.97,14.8,47.84626,-54.09684
2019-05-30 12:50:00+00:00,233.4848,3.99,14.72,47.84626,-54.09684
2019-05-30 13:00:00+00:00,222.0631,4.0,14.64,47.84626,-54.09684
2019-05-30 13:10:00+00:00,215.5964,4.01,14.64,47.84626,-54.09684
2019-05-30 13:20:00+00:00,226.5314,4.07,14.72,47.84626,-54.09684
2019-05-30 13:30:00+00:00,227.2698,4.1,14.72,47.84626,-54.09684
2019-05-30 13:40:00+00:00,217.4648,4.1,14.72,47.84626,-54.09684
2019-05-30 13:50:00+00:00,219.7798,4.14,14.72,47.84626,-54.09684
2019-05-30 14:00:00+00:00,229.7381,4.18,14.64,47.84626,-54.09684
2019-05-30 14:10:00+00:00,223.9064,4.2,14.56,47.84626,-54.09684
2019-05-30 14:20:00+00:00,210.6915,4.2,14.64,47.84626,-54.09684
2019-05-30 14:30:00+00:00,211.4881,4.22,14.64,47.84626,-54.09684
2019-05-30 14:40:00+00:00,217.7748,4.26,14.64,47.84626,-54.09684
2019-05-30 14:50:00+00:00,214.8031,4.29,14.64,47.84626,-54.09684
2019-05-30 15:00:00+00:00,213.8898,4.3,14.56,47.84626,-54.09684
2019-05-30 15:10:00+00:00,219.6265,4.3,14.56,47.84626,-54.09684
2019-05-30 15:20:00+00:00,223.0514,4.3,14.56,47.84626,-54.09684
2019-05-30 15:30:00+00:00,222.8681,4.39,14.56,47.84626,-54.09684
2019-05-30 15:40:00+00:00,226.1398,4.4,14.56,47.84626,-54.09684
2019-05-30 15:50:00+00:00,229.0864,4.48,14.56,47.84626,-54.09684
2019-05-30 16:00:00+00:00,229.8998,4.5,14.48,47.84626,-54.09684
2019-05-30 16:10:00+00:00,230.9015,4.55,14.4,47.84626,-54.09684
2019-05-30 16:20:00+00:00,233.7598,4.6,14.48,47.84626,-54.09684
2019-05-30 16:30:00+00:00,234.0931,4.6,14.48,47.84626,-54.09684
2019-05-30 16:40:00+00:00,233.3148,4.66,14.48,47.84626,-54.09684
2019-05-30 16:50:00+00:00,236.2247,4.7,14.48,47.84626,-54.09684
2019-05-30 17:00:00+00:00,239.1997,4.7,14.32,47.84626,-54.09684
2019-05-30 17:10:00+00:00,241.9581,4.71,14.24,47.84626,-54.09684
2019-05-30 17:20:00+00:00,249.1498,4.78,14.32,47.84626,-54.09684
2019-05-30 17:30:00+00:00,258.2497,4.75,14.24,47.84626,-54.09684
2019-05-30 17:40:00+00:00,260.3581,4.72,14.24,47.84626,-54.09684
2019-05-30 17:50:00+00:00,261.0714,4.76,14.24,47.84626,-54.09684
2019-05-30 18:00:00+00:00,272.2681,4.7,14.16,47.84626,-54.09684
2019-05-30 18:10:00+00:00,279.8497,4.7,14.08,47.84626,-54.09684
2019-05-30 18:20:00+00:00,279.8464,4.7,14.08,47.84626,-54.09684
2019-05-30 18:30:00+00:00,280.6531,4.7,14.08,47.84626,-54.09684
2019-05-30 18:40:00+00:00,291.5563,4.7,14.16,47.84626,-54.09684
2019-05-30 18:50:00+00:00,298.348,4.7,14.08,47.84626,-54.09684
2019-05-30 19:00:00+00:00,299.7147,4.7,14.08,47.84626,-54.09684
2019-05-30 19:10:00+00:00,305.2446,4.7,14.0,47.84626,-54.09684
2019-05-30 19:20:00+00:00,314.9263,4.7,14.08,47.84626,-54.09684
2019-05-30 19:30:00+00:00,316.353,4.71,14.08,47.84626,-54.09684
2019-05-30 19:40:00+00:00,315.8397,4.9,14.08,47.84626,-54.09684
2019-05-30 19:50:00+00:00,326.8196,5.11,14.08,47.84626,-54.09684
2019-05-30 20:00:00+00:00,334.5129,5.2,14.0,47.84626,-54.09684
2019-05-30 20:10:00+00:00,335.9646,5.33,13.92,47.84626,-54.09684
2019-05-30 20:20:00+00:00,333.1281,5.4,13.92,47.84626,-54.09684
2019-05-30 20:30:00+00:00,336.0797,5.47,13.92,47.84626,-54.09684
2019-05-30 20:40:00+00:00,335.1396,5.5,13.92,47.84626,-54.09684
2019-05-30 20:50:00+00:00,332.4497,5.5,13.92,47.84626,-54.09684
2019-05-30 21:00:00+00:00,336.938,5.51,13.84,47.84626,-54.09684
2019-05-30 21:10:00+00:00,342.7395,5.53,13.76,47.84626,-54.09684
2019-05-30 21:20:00+00:00,344.803,5.56,13.84,47.84626,-54.09684
2019-05-30 21:30:00+00:00,343.0746,5.58,13.84,47.84626,-54.09684
2019-05-30 21:40:00+00:00,339.9932,5.59,13.92,47.84626,-54.09684
2019-05-30 21:50:00+00:00,339.0447,5.57,13.92,47.84626,-54.09684
2019-05-30 22:00:00+00:00,336.3697,5.55,13.84,47.84626,-54.09684
2019-05-30 22:10:00+00:00,333.0563,5.55,13.68,47.84626,-54.09684
2019-05-30 22:20:00+00:00,330.3497,5.55,13.68,47.84626,-54.09684
2019-05-30 22:30:00+00:00,326.8831,5.5,13.68,47.84626,-54.09684
2019-05-30 22:40:00+00:00,324.5897,5.5,13.68,47.84626,-54.09684
2019-05-30 22:50:00+00:00,317.698,5.46,13.68,47.84626,-54.09684
2019-05-30 23:00:00+00:00,310.093,5.46,13.53,47.84626,-54.09684
2019-05-30 23:10:00+00:00,305.718,5.49,13.37,47.84626,-54.09684
2019-05-30 23:20:00+00:00,302.6313,5.8,13.37,47.84626,-54.09684
2019-05-30 23:30:00+00:00,294.5247,6.12,13.29,47.84626,-54.09684
2019-05-30 23:40:00+00:00,282.8697,6.3,13.29,47.84626,-54.09684
2019-05-30 23:50:00+00:00,277.3947,6.4,13.29,47.84626,-54.09684
